This demonstration page uses our WeatherBlox Daily Observations layout. Learn more.

40.92945, -100.16068

Hourly Observations for August 2, 2018

Temp ( °F °C ) Dew Point ( °F °C ) Humidity (%) Winds ( mph kmh ) Pressure ( in mb ) Visibility ( mi km ) Precip ( " mm )
12:15 am 00:15 Clear 68 19.8 61 16.3 80 80 Calm 29.97 1015 10 16.0934 0 0
12:35 am 00:35 Clear 68 19.8 62 16.5 81 81 NE 3 6 29.97 1015 10 16.0934 0 0
12:55 am 00:55 Clear 65 18.6 62 16.5 88 88 ENE 3 6 29.97 1015 10 16.0934 0 0
1:15 am 01:15 Clear 65 18.6 62 16.4 87 87 ENE 5 7 29.97 1015 7 11.26538 0 0
1:35 am 01:35 Clear 65 18.5 62 16.6 89 89 ENE 6 9 29.97 1015 10 16.0934 0 0
1:55 am 01:55 Clear 65 18.6 63 17.2 92 92 ENE 8 13 29.97 1015 10 16.0934 0 0
2:15 am 02:15 Clear 66 18.8 63 17.4 92 92 E 7 11 29.97 1015 10 16.0934 0 0
2:35 am 02:35 Clear 67 19.2 64 17.9 92 92 E 7 11 29.97 1015 10 16.0934 0 0
2:55 am 02:55 Clear 67 19.5 64 18 91 91 E 8 13 29.97 1015 10 16.0934 0 0
3:15 am 03:15 Clear 67 19.4 64 18 92 92 E 8 13 29.97 1015 7 11.26538 0 0
3:35 am 03:35 Clear 67 19.2 64 18 93 93 ESE 9 15 29.97 1015 7 11.26538 0 0
3:55 am 03:55 Clear 66 19 64 18 94 94 ESE 9 15 29.97 1015 7 11.26538 0 0
4:15 am 04:15 Clear with Mist and Fog 66 19 64 17.8 93 93 SE 7 11 29.97 1015 5 8.0467 0 0
4:35 am 04:35 Clear with Mist and Fog 66 18.7 64 17.7 94 94 SE 6 9 29.97 1015 5 8.0467 0 0
4:55 am 04:55 Clear with Mist and Fog 65 18.5 64 17.6 95 95 ESE 6 9 29.97 1015 5 8.0467 0 0
5:15 am 05:15 Partly Cloudy with Mist and Fog 65 18.3 64 17.5 95 95 ESE 7 11 29.97 1015 4 6.43736 0 0
5:35 am 05:35 Partly Cloudy with Mist and Fog 65 18.2 63 17.3 95 95 SE 6 9 29.97 1015 4 6.43736 0 0
5:55 am 05:55 Cloudy with Mist and Fog 64 18 63 17.2 95 95 SE 5 7 29.97 1015 1 1.60934 0 0
6:15 am 06:15 Cloudy with Fog 64 17.7 63 17 96 96 SE 6 9 29.97 1015 0.5 0.80467 0 0
6:35 am 06:35 Cloudy with Fog 63 17.4 62 16.7 96 96 SE 3 6 29.97 1015 0.5 0.80467 0 0
6:55 am 06:55 Cloudy with Mist and Fog 63 17.1 62 16.5 96 96 SSE 5 7 29.97 1015 0.75 1.207005 0 0
7:15 am 07:15 Partly Cloudy with Mist and Fog 63 17.3 62 16.6 96 96 SE 5 7 29.97 1015 2.5 4.02335 0 0
7:35 am 07:35 Sunny with Mist and Fog 64 17.5 62 16.9 96 96 SE 3 6 29.97 1015 4 6.43736 0 0
7:55 am 07:55 Sunny 65 18.2 63 17.3 95 95 Calm 29.97 1015 7 11.26538 0 0
8:15 am 08:15 Sunny 66 19.1 62 16.6 86 86 SSE 3 6 29.97 1015 10 16.0934 0 0
8:35 am 08:35 Sunny 68 19.9 62 16.9 83 83 Calm 29.97 1015 10 16.0934 0 0
8:55 am 08:55 Sunny 70 21 63 17.3 80 80 Calm 29.94 1014 10 16.0934 0 0
9:15 am 09:15 Sunny 73 23 63 17.4 71 71 SW 6 9 29.94 1014 10 16.0934 0 0
9:35 am 09:35 Sunny 75 23.8 64 17.6 68 68 SSW 7 11 29.91 1013 10 16.0934 0 0
9:55 am 09:55 Sunny 77 24.8 64 17.6 64 64 SW 6 9 29.91 1013 10 16.0934 0 0
10:15 am 10:15 Sunny 78 25.7 64 17.6 61 61 SSW 7 11 29.91 1013 10 16.0934 0 0
10:35 am 10:35 Sunny 80 26.5 64 17.7 59 59 SSW 9 15 29.91 1013 10 16.0934 0 0
10:55 am 10:55 Sunny 81 27.4 64 17.7 55 55 SSW 12 19 29.88 1012 10 16.0934 0 0
11:15 am 11:15 Sunny 82 27.6 64 17.6 54 54 SW 12 19 29.88 1012 10 16.0934 0 0
11:35 am 11:35 Sunny 83 28.3 65 18.2 54 54 SSW 12 19 29.85 1011 10 16.0934 0 0
11:55 am 11:55 Sunny 84 28.8 65 18.1 52 52 SSW 10 17 29.85 1011 10 16.0934 0 0
12:15 pm 12:15 Sunny 84 29 65 18.5 53 53 SSW 10 17 29.85 1011 10 16.0934 0 0
12:35 pm 12:35 Sunny 86 29.9 65 18.1 49 49 SSW 13 20 29.85 1011 7 11.26538 0 0
12:55 pm 12:55 Sunny 87 30.5 64 17.8 47 47 SSW 12 19 29.85 1011 10 16.0934 0 0
1:15 pm 13:15 Sunny 88 31 65 18.4 47 47 S 13 20 29.83 1010 10 16.0934 0 0
1:35 pm 13:35 Sunny 89 31.6 64 17.8 44 44 SSW 13 20 29.83 1010 10 16.0934 0 0
1:55 pm 13:55 Sunny 90 32 65 18.1 44 44 SSW 12 19 29.83 1010 10 16.0934 0 0
2:15 pm 14:15 Sunny 90 32.3 64 17.8 42 42 S 13 20 29.83 1010 10 16.0934 0 0
2:35 pm 14:35 Sunny 90 32.2 64 17.6 42 42 S 13 20 29.8 1009 10 16.0934 0.01 0.254
2:55 pm 14:55 Sunny 91 32.5 64 17.5 41 41 S 14 22 29.8 1009 10 16.0934 0.01 0.254
3:15 pm 15:15 Sunny 91 32.7 63 17.1 39 39 S 14 22 29.8 1009 10 16.0934 0 0
3:35 pm 15:35 Sunny 91 33 63 17.3 39 39 S 14 22 29.8 1009 10 16.0934 0 0
3:55 pm 15:55 Sunny 92 33.3 63 17.4 39 39 SSW 12 19 29.8 1009 10 16.0934 0 0
4:15 pm 16:15 Sunny 92 33.1 62 16.7 37 37 S 15 24 29.8 1009 10 16.0934 0 0
4:35 pm 16:35 Sunny 92 33.2 64 17.6 39 39 S 13 20 29.8 1009 7 11.26538 0 0
4:55 pm 16:55 Sunny 91 32.7 64 17.5 40 40 S 12 19 29.8 1009 10 16.0934 0 0
5:15 pm 17:15 Sunny 91 32.5 63 17 39 39 S 15 24 29.77 1008 10 16.0934 0 0
5:35 pm 17:35 Sunny 91 32.5 62 16.7 39 39 S 13 20 29.8 1009 10 16.0934 0 0
5:55 pm 17:55 Sunny 90 32.2 63 17 40 40 S 13 20 29.8 1009 10 16.0934 0 0
6:15 pm 18:15 Sunny 90 32 63 17 41 41 S 12 19 29.77 1008 10 16.0934 0 0
6:35 pm 18:35 Sunny 89 31.7 63 17.4 42 42 S 9 15 29.77 1008 10 16.0934 0 0
6:55 pm 18:55 Sunny 88 31.1 63 17.3 44 44 S 10 17 29.77 1008 10 16.0934 0 0
7:15 pm 19:15 Sunny 87 30.5 64 17.6 46 46 SSE 8 13 29.77 1008 10 16.0934 0 0
7:35 pm 19:35 Sunny 85 29.7 65 18.6 51 51 SSE 9 15 29.8 1009 10 16.0934 0 0
7:55 pm 19:55 Sunny 84 28.9 65 18.4 53 53 SSE 9 15 29.8 1009 10 16.0934 0 0
8:15 pm 20:15 Sunny 83 28.2 65 18.3 55 55 SSE 10 17 29.8 1009 10 16.0934 0 0
8:35 pm 20:35 Sunny 81 27.4 65 18.4 58 58 SSE 9 15 29.8 1009 10 16.0934 0 0
8:55 pm 20:55 Clear 80 26.4 65 18.1 60 60 SSE 10 17 29.8 1009 10 16.0934 0 0
9:15 pm 21:15 Clear 78 25.6 64 18 63 63 SSE 9 15 29.83 1010 10 16.0934 0 0
9:35 pm 21:35 Clear 77 25 64 17.7 64 64 SSE 10 17 29.83 1010 10 16.0934 0 0
9:55 pm 21:55 Clear 77 24.8 63 17.1 62 62 SSE 12 19 29.83 1010 10 16.0934 0 0
10:15 pm 22:15 Clear 77 25 62 16.4 59 59 S 12 19 29.85 1011 10 16.0934 0 0
10:35 pm 22:35 Clear 77 25 61 16.1 58 58 SSE 13 20 29.85 1011 10 16.0934 0 0
10:55 pm 22:55 Clear 77 25 61 16 57 57 S 14 22 29.85 1011 10 16.0934 0 0
11:15 pm 23:15 Clear 77 25 61 16 57 57 S 14 22 29.85 1011 10 16.0934 0 0
11:35 pm 23:35 Clear 76 24.5 61 16.1 60 60 S 12 19 29.85 1011 10 16.0934 0 0
11:55 pm 23:55 Clear 75 24.1 62 16.5 63 63 S 10 17 29.85 1011 10 16.0934 0 0

Powered by AerisWeather